1505422800.32,64175,16.38,73196.5,1.33,0.13,0.09,0,*46
1505422801.53,64176,16.38,73212.0,1.31,0.21,0.13,0,*7D
1505422802.77,64177,16.38,73212.0,1.29,0.29,0.21,0,*7C
1505422803.98,64178,16.38,73200.3,1.29,0.43,0.33,0,*7C
1505422805.19,64179,16.38,73206.3,1.29,0.43,0.51,0,*79
1505422806.36,64180,16.38,73198.3,1.31,0.01,-0.03,0,*5A
1505422807.58,64181,16.38,73200.3,1.31,0.87,0.87,0,*74
1505422808.81,64182,16.38,73210.8,1.31,0.83,0.83,0,*77
1505422810.04,64183,16.38,73198.5,1.33,0.13,0.21,0,*75
1505422811.24,64184,16.38,73214.8,1.31,-0.41,-0.41,0,*71
1505422812.42,64185,16.38,73218.3,1.27,-0.33,-0.33,0,*77
1505422813.63,64186,16.38,73212.0,1.27,-0.89,-0.81,0,*7C
1505422814.83,64187,16.38,73220.3,1.25,-0.57,-0.57,0,*77
1505422816.07,64188,16.38,73224.5,1.25,0.25,0.13,0,*7D
1505422817.24,64189,16.38,73222.8,1.27,-0.07,0.01,0,*50
1505422818.4,64190,16.38,73226.5,1.27,0.01,0.01,0,*73
1505422819.59,64191,16.38,73226.3,1.23,0.05,0.13,0,*41
1505422820.77,64192,16.31,73226.8,1.25,0.01,0.01,0,*73
1505422822.0,64193,16.38,73226.5,1.25,0.17,0.17,0,*72
1505422823.23,64194,16.38,73224.0,1.25,0.17,0.17,0,*75
1505422824.45,64195,16.38,73232.5,1.23,0.25,0.17,0,*73
1505422825.67,64196,16.38,73232.3,1.23,0.37,0.37,0,*71
1505422826.91,64197,16.38,73232.3,1.25,0.41,0.37,0,*77
1505422828.15,64198,16.38,73232.5,1.25,0.37,0.37,0,*79
1505422829.39,64199,16.38,73232.5,1.25,0.47,0.47,0,*78
1505422830.62,64200,16.38,73232.8,1.23,0.47,0.47,0,*7D
1505422831.85,64201,16.38,73236.0,1.25,0.67,0.67,0,*7A
1505422833.09,64202,16.38,73234.5,1.25,0.79,0.75,0,*75
1505422834.33,64203,16.38,73238.3,1.23,0.91,0.91,0,*7E
1505422835.58,64204,16.38,73236.8,1.25,0.91,0.91,0,*7F
1505422836.81,64205,16.38,73238.5,1.27,0.79,0.91,0,*7A
1505422838.04,64206,16.38,73236.8,1.27,0.55,0.55,0,*7F
1505422839.26,64207,16.38,73242.5,1.27,0.55,0.59,0,*72
1505422840.48,64208,16.31,73238.0,1.27,0.59,0.55,0,*7D
1505422841.72,64209,16.38,73238.5,1.29,0.51,0.51,0,*7E
1505422842.93,64210,16.38,73238.0,1.29,1.05,1.05,0,*76
1505422844.19,64211,16.38,73234.5,1.29,1.13,1.17,0,*73
1505422845.45,64212,16.38,73238.0,1.29,1.17,1.17,0,*74
1505422846.7,64213,16.38,73240.0,1.29,1.25,1.17,0,*74
1505422847.96,64214,16.38,73240.5,1.29,1.17,1.17,0,*72
1505422849.22,64215,16.38,73244.8,1.33,1.09,1.17,0,*77
1505422850.45,64216,16.38,73242.5,1.31,1.17,1.17,0,*79
1505422851.7,64217,16.38,73242.3,1.33,0.87,0.87,0,*7A
1505422852.94,64218,16.38,73242.0,1.31,1.09,1.09,0,*77
1505422854.18,64219,16.38,73240.0,1.31,1.33,1.37,0,*72
1505422855.42,64220,16.38,73234.0,1.33,1.47,1.43,0,*7A
1505422856.64,64221,16.38,73232.5,1.35,1.47,1.47,0,*79
1505422857.89,64222,16.38,73232.3,1.37,1.43,1.51,0,*7B
1505422859.09,64223,16.38,73230.5,1.35,1.41,1.33,0,*7E
1505422860.35,64224,16.38,73228.3,1.37,1.37,1.37,0,*7E
1505422861.56,64225,16.38,73228.8,1.37,1.05,1.05,0,*7F
1505422862.78,64226,16.38,73232.8,1.35,0.87,0.87,0,*7E
1505422864.01,64227,16.38,73238.8,1.37,0.67,0.67,0,*7D
1505422865.26,64228,16.38,73234.3,1.37,0.55,0.51,0,*76
1505422866.47,64229,16.38,73234.5,1.37,0.43,0.51,0,*70
1505422867.68,64230,16.38,73234.0,1.37,0.43,0.51,0,*78
1505422868.87,64231,16.38,73232.3,1.35,0.43,0.51,0,*7B
1505422870.09,64232,16.38,73234.8,1.35,0.47,0.47,0,*7B
1505422871.3,64233,16.38,73236.8,1.35,0.51,0.59,0,*72
1505422872.52,64234,16.38,73236.0,1.35,0.63,0.59,0,*74
1505422873.73,64235,16.38,73234.3,1.35,0.63,0.63,0,*7C
1505422874.94,64236,16.38,73232.0,1.35,0.63,0.67,0,*7B
1505422876.15,64237,16.38,73224.3,1.35,0.59,0.59,0,*7E
1505422877.37,64238,16.38,73218.8,1.35,0.47,0.47,0,*71
1505422878.56,64239,16.38,73224.3,1.31,0.37,0.43,0,*77
1505422879.81,64240,16.31,73228.0,1.33,0.47,0.47,0,*78
1505422881.02,64241,16.38,73230.0,1.35,0.63,0.59,0,*76
1505422882.23,64242,16.38,73232.8,1.35,0.63,0.63,0,*7C
1505422883.47,64243,16.38,73236.3,1.33,0.59,0.59,0,*7B
1505422884.71,64244,16.38,73232.5,1.33,0.59,0.59,0,*7C
1505422885.95,64245,16.38,73234.8,1.33,0.37,0.37,0,*7D
1505422887.18,64246,16.38,73232.0,1.33,0.13,0.13,0,*7E
1505422888.34,64247,16.38,73230.8,1.31,0.01,0.01,0,*7D
1505422889.55,64248,16.31,73228.3,1.29,-0.15,-0.15,0,*7B
1505422890.74,64249,16.38,73228.0,1.27,-0.45,-0.41,0,*70
1505422891.96,64250,16.38,73230.8,1.29,-0.41,-0.41,0,*72
1505422893.14,64251,16.38,73228.0,1.27,-0.33,-0.33,0,*7D
1505422894.34,64252,16.38,73226.3,1.29,-0.33,-0.33,0,*70
1505422895.55,64253,16.31,73224.8,1.29,-0.33,-0.33,0,*71
1505422896.73,64254,16.38,73220.8,1.27,-0.45,-0.45,0,*78
1505422897.94,64255,16.38,73226.5,1.25,-0.29,-0.33,0,*70
1505422899.13,64256,16.38,73216.3,1.25,-0.07,0.01,0,*53
1505422900.37,64257,16.31,73224.3,1.25,0.55,0.55,0,*79
1505422901.62,64258,16.38,73224.8,1.25,0.25,0.37,0,*75
1505422902.85,64259,16.38,73214.5,1.25,0.41,0.41,0,*77
1505422904.04,64260,16.31,73218.3,1.25,0.01,0.05,0,*79
1505422905.25,64261,16.38,73222.5,1.25,-0.11,-0.11,0,*7C
1505422906.45,64262,16.38,73224.3,1.25,-0.19,-0.29,0,*7C
1505422907.67,64263,16.31,73226.8,1.23,0.25,0.25,0,*78
1505422908.86,64264,16.38,73224.5,1.23,0.05,0.17,0,*4C
1505422910.04,64265,16.38,73222.0,1.23,-0.07,-0.07,0,*7E
1505422911.22,64266,16.38,73220.3,1.23,-0.29,-0.29,0,*7D
1505422912.41,64267,16.31,73216.0,1.23,-0.33,-0.37,0,*78
1505422913.6,64268,16.38,73220.8,1.21,-0.61,-0.65,0,*75
1505422914.82,64269,16.31,73222.3,1.17,-0.41,-0.41,0,*75
1505422916.05,64270,16.31,73218.5,1.17,-0.27,-0.29,0,*73
1505422917.26,64271,16.38,73222.3,1.17,-0.15,-0.15,0,*7C
1505422918.46,64272,16.31,73218.8,1.17,-0.07,-0.07,0,*7F
1505422919.7,64273,16.38,73220.3,1.17,-0.27,-0.15,0,*7F
1505422920.96,64274,16.38,73224.8,1.17,-0.27,-0.27,0,*79
1505422922.17,64275,16.38,73224.8,1.17,-0.45,-0.41,0,*7C
1505422923.35,64276,16.31,73222.0,1.15,-0.29,-0.29,0,*79
1505422924.56,64277,16.38,73226.3,1.15,-0.27,-0.29,0,*76
1505422925.78,64278,16.31,73226.3,1.15,-0.19,-0.27,0,*7A
1505422927.04,64279,16.38,73230.0,1.13,-0.23,-0.23,0,*70
1505422928.28,64280,16.31,73230.5,1.13,-0.19,-0.23,0,*7F
1505422929.49,64281,16.31,73230.8,1.13,-0.19,-0.19,0,*77
1505422930.71,64282,16.38,73236.5,1.13,-0.19,-0.19,0,*74
1505422931.89,64283,16.31,73228.5,1.15,0.05,0.05,0,*73
1505422933.08,64284,16.38,73226.3,1.13,0.01,-0.07,0,*59
1505422934.3,64285,16.38,73226.3,1.13,-0.11,-0.11,0,*73
1505422935.5,64286,16.38,73228.5,1.13,-0.07,0.01,0,*5B
1505422936.72,64287,16.38,73230.0,1.13,0.05,0.13,0,*46
1505422937.96,64288,16.31,73234.8,1.13,0.13,0.17,0,*7A
1505422939.2,64289,16.31,73228.5,1.13,0.25,0.17,0,*7E
1505422940.39,64290,16.31,73234.0,1.11,-0.11,-0.07,0,*42
1505422941.62,64291,16.31,73234.0,1.11,-0.23,-0.23,0,*74
1505422942.8,64292,16.31,73232.0,1.11,-0.07,-0.07,0,*77
1505422943.96,64293,16.38,73240.5,1.11,0.05,0.01,0,*72
1505422945.18,64294,16.31,73238.5,1.11,0.13,0.13,0,*71
1505422946.37,64295,16.38,73238.3,1.11,0.13,0.05,0,*47
1505422947.6,64296,16.31,73236.5,1.11,0.55,0.55,0,*73
1505422948.82,64297,16.38,73236.3,1.11,0.67,0.63,0,*76
1505422950.06,64298,16.31,73234.3,1.13,0.63,0.67,0,*7B
1505422951.29,64299,16.38,73238.5,1.13,0.67,0.67,0,*7E
1505422952.52,64300,16.38,73236.5,1.15,0.83,0.79,0,*7C
1505422953.77,64301,16.31,73236.5,1.13,0.75,0.75,0,*7E
1505422954.95,64302,16.31,73232.8,1.15,1.05,1.05,0,*7B
1505422956.22,64303,16.38,73234.8,1.17,1.33,1.33,0,*78
1505422957.48,64304,16.31,73232.0,1.17,1.29,1.29,0,*7F
1505422958.71,64305,16.38,73234.8,1.17,1.05,1.13,0,*79
1505422959.95,64306,16.38,73236.0,1.21,0.95,0.95,0,*78
1505422961.19,64307,16.31,73234.3,1.21,0.95,0.95,0,*79
1505422962.44,64308,16.31,73232.8,1.17,0.79,0.91,0,*75
1505422963.67,64309,16.31,73230.8,1.23,0.87,0.87,0,*75
1505422964.9,64310,16.31,73232.0,1.23,0.87,0.87,0,*7D
1505422966.13,64311,16.31,73230.0,1.23,0.87,0.87,0,*7C
1505422967.38,64312,16.31,73230.3,1.21,0.83,0.83,0,*7D
1505422968.6,64313,16.38,73232.8,1.23,0.87,0.87,0,*7E
1505422969.85,64314,16.31,73224.8,1.25,0.87,0.79,0,*7E
1505422971.08,64315,16.31,73230.0,1.23,0.87,0.87,0,*78
1505422972.32,64316,16.31,73226.3,1.25,0.75,0.75,0,*7D
1505422973.56,64317,16.38,73228.3,1.25,0.55,0.63,0,*79
1505422974.79,64318,16.31,73224.5,1.23,0.51,0.55,0,*71
1505422976.0,64319,16.31,73232.0,1.23,0.41,0.41,0,*74
1505422977.24,64320,16.31,73236.0,1.25,0.41,0.37,0,*79
1505422978.47,64321,16.31,73234.8,1.23,0.47,0.47,0,*7F
1505422979.69,64322,16.31,73232.8,1.23,0.47,0.47,0,*7C
1505422980.92,64323,16.31,73236.5,1.23,0.47,0.47,0,*7D
1505422982.14,64324,16.31,73230.5,1.23,0.55,0.63,0,*7F
1505422983.38,64325,16.31,73228.0,1.23,1.13,1.13,0,*7B
1505422984.64,64326,16.31,73230.5,1.25,1.13,1.13,0,*7E
1505422985.9,64327,16.31,73238.3,1.25,1.13,1.13,0,*7F
1505422987.16,64328,16.31,73232.5,1.25,1.13,1.13,0,*70
1505422988.42,64329,16.38,73240.8,1.25,1.09,1.09,0,*71
1505422989.66,64330,16.31,73238.5,1.27,1.17,1.13,0,*7F
1505422990.92,64331,16.31,73236.0,1.29,1.17,1.17,0,*74
1505422992.15,64332,16.31,73236.3,1.27,1.17,1.17,0,*79
1505422993.41,64333,16.31,73238.0,1.29,1.17,1.13,0,*72
1505422994.67,64334,16.31,73238.3,1.29,1.13,1.13,0,*71
1505422995.93,64335,16.31,73238.0,1.29,1.13,1.13,0,*70
1505422997.16,64336,16.31,73240.5,1.29,1.05,1.13,0,*74
1505422998.36,64337,16.31,73242.8,1.29,1.01,1.05,0,*76
1505422999.58,64338,16.31,73238.5,1.29,0.95,1.05,0,*45
1505423000.79,64339,16.31,73240.5,1.31,1.05,1.09,0,*79
1505423002.03,64340,16.31,73242.8,1.31,1.09,1.09,0,*7B
1505423003.24,64341,16.31,73238.5,1.31,1.05,1.09,0,*76
1505423004.5,64342,16.31,73240.5,1.33,1.09,1.09,0,*7B
1505423005.74,64343,16.31,73242.0,1.31,1.21,1.21,0,*78
1505423006.98,64344,16.31,73238.5,1.31,1.21,1.21,0,*7F
1505423008.22,64345,16.31,73238.0,1.31,1.33,1.33,0,*7E
1505423009.47,64346,16.31,73232.8,1.33,1.37,1.43,0,*7C
1505423010.73,64347,16.31,73238.0,1.37,1.63,1.67,0,*7E
1505423011.95,64348,16.31,73238.3,1.35,1.47,1.47,0,*77
1505423013.17,64349,16.31,73240.5,1.37,1.37,1.41,0,*75
1505423014.4,64350,16.31,73242.8,1.37,1.41,1.43,0,*7E
1505423015.64,64351,16.31,73242.3,1.37,1.43,1.51,0,*7E
1505423016.89,64352,16.31,73238.5,1.37,1.43,1.51,0,*7D
1505423018.14,64353,16.31,73228.8,1.37,1.43,1.51,0,*7C
1505423019.37,64354,16.31,73234.0,1.39,1.51,1.51,0,*76
1505423020.59,64355,16.31,73228.0,1.43,1.41,1.43,0,*78
1505423021.83,64356,16.31,73226.3,1.39,1.29,1.29,0,*74
1505423023.1,64357,16.31,73228.0,1.43,1.29,1.29,0,*78
1505423024.34,64358,16.31,73230.5,1.39,1.13,1.17,0,*7E
1505423025.58,64359,16.31,73228.5,1.39,1.29,1.29,0,*7B
1505423026.77,64360,16.31,73234.0,1.43,1.41,1.41,0,*7C
1505423028.0,64361,16.31,73230.0,1.43,1.41,1.47,0,*7B
1505423029.18,64362,16.31,73232.3,1.45,1.41,1.41,0,*78
1505423030.37,64363,16.31,73228.5,1.45,1.43,1.41,0,*7B
1505423031.6,64364,16.31,73234.5,1.45,1.43,1.43,0,*7E
1505423032.85,64365,16.31,73236.8,1.47,1.51,1.51,0,*7D
1505423034.04,64366,16.31,73234.0,1.45,1.75,1.83,0,*75
1505423035.28,64367,16.31,73234.3,1.47,1.59,1.71,0,*75
1505423036.53,64368,16.31,73244.8,1.47,1.47,1.43,0,*74
1505423037.79,64369,16.31,73230.0,1.47,1.71,1.71,0,*71
1505423039.01,64370,16.31,73242.0,1.49,1.93,1.97,0,*73
1505423040.22,64371,16.31,73250.0,1.49,1.63,1.75,0,*71
1505423041.47,64372,16.31,73242.3,1.51,1.89,2.01,0,*7F
1505423042.73,64373,16.31,73238.8,1.51,1.85,1.97,0,*7E
1505423043.92,64374,16.31,73240.0,1.53,1.79,1.89,0,*77
1505423045.1,64375,16.31,73236.0,1.53,1.83,1.79,0,*7C
1505423046.33,64376,16.31,73230.5,1.55,1.79,1.71,0,*74
1505423047.58,64377,16.31,73232.0,1.55,1.67,1.67,0,*7D
1505423048.84,64378,16.31,73232.3,1.55,1.67,1.67,0,*72
1505423050.06,64379,16.31,73230.5,1.53,1.59,1.67,0,*78
1505423051.31,64380,16.31,73226.3,1.55,1.67,1.67,0,*75
1505423052.53,64381,16.31,73226.5,1.57,1.63,1.71,0,*75
1505423053.76,64382,16.31,73230.5,1.57,1.63,1.63,0,*75
1505423054.98,64383,16.31,73242.0,1.57,1.63,1.59,0,*7D
1505423056.2,64384,16.31,73238.0,1.57,1.63,1.59,0,*7A
1505423057.42,64385,16.31,73234.0,1.57,1.63,1.63,0,*72
1505423058.68,64386,16.31,73232.3,1.59,1.71,1.63,0,*7C
1505423059.93,64387,16.31,73230.8,1.59,1.71,1.63,0,*7D
1505423061.15,64388,16.31,73238.3,1.57,1.59,1.63,0,*76
1505423062.4,64389,16.31,73238.3,1.59,1.59,1.63,0,*79
1505423063.66,64390,16.31,73246.8,1.59,1.55,1.63,0,*7D
1505423064.92,64391,16.31,73242.8,1.59,1.55,1.55,0,*79
1505423066.17,64392,16.31,73234.3,1.59,1.55,1.55,0,*7A
1505423067.42,64393,16.31,73234.3,1.59,1.59,1.59,0,*7B
1505423068.67,64394,16.31,73232.8,1.59,1.55,1.59,0,*70
1505423069.9,64395,16.31,73232.5,1.65,1.71,1.63,0,*71
1505423071.12,64396,16.31,73230.0,1.61,1.59,1.63,0,*7C
1505423072.34,64397,16.31,73226.5,1.61,1.59,1.59,0,*74
1505423073.56,64398,16.31,73230.8,1.61,1.59,1.59,0,*7B
1505423074.79,64399,16.31,73230.0,1.61,1.51,1.63,0,*7B
1505423076.03,64400,16.31,73226.3,1.67,1.63,1.63,0,*7B
1505423077.25,64401,16.31,73224.3,1.65,1.63,1.63,0,*78
1505423078.48,64402,16.31,73224.8,1.61,1.63,1.63,0,*7F
1505423079.73,64403,16.31,73228.0,1.67,1.63,1.63,0,*78
1505423080.98,64404,16.31,73230.0,1.67,1.63,1.67,0,*7B
1505423082.22,64405,16.31,73234.0,1.67,1.63,1.67,0,*7A
1505423083.47,64406,16.31,73224.8,1.67,1.71,1.71,0,*7D
1505423084.71,64407,16.31,73222.5,1.67,1.71,1.71,0,*7C
1505423085.94,64408,16.31,73222.5,1.67,1.67,1.75,0,*70
1505423087.16,64409,16.31,73226.5,1.69,1.67,1.67,0,*7C
1505423088.4,64410,16.31,73238.0,1.67,1.63,1.63,0,*7A
1505423089.63,64411,16.31,73236.5,1.67,1.67,1.75,0,*78
1505423090.87,64412,16.31,73230.3,1.67,1.93,1.93,0,*78
1505423092.08,64413,16.31,73230.3,1.69,2.27,2.39,0,*78
1505423093.32,64414,16.31,73214.8,1.71,2.21,2.21,0,*79
1505423094.57,64415,16.31,73208.0,1.73,2.25,2.25,0,*7A
1505423095.8,64416,16.31,73224.0,1.75,2.21,2.21,0,*7F
1505423097.03,64417,16.31,73228.3,1.75,1.97,1.97,0,*7E
1505423098.26,64418,16.31,73220.5,1.75,1.85,1.85,0,*71
1505423099.49,64419,16.31,73208.0,1.75,1.85,1.89,0,*7C
1505423100.73,64420,16.31,73204.0,1.75,1.85,1.85,0,*7A
1505423101.94,64421,16.31,73212.3,1.75,1.75,1.85,0,*74
1505423103.12,64422,16.31,73216.8,1.75,1.79,1.75,0,*74
1505423104.33,64423,16.31,73214.8,1.77,1.75,1.83,0,*72
1505423105.54,64424,16.31,73212.0,1.77,1.75,1.79,0,*70
1505423106.75,64425,16.31,73210.8,1.77,1.75,1.75,0,*7D
1505423107.98,64426,16.31,73216.8,1.75,1.71,1.71,0,*7C
1505423109.24,64427,16.31,73218.8,1.77,1.55,1.63,0,*7A
1505423110.46,64428,16.31,73218.8,1.75,1.59,1.59,0,*72
1505423111.71,64429,16.31,73216.3,1.77,1.67,1.67,0,*71
1505423112.94,64430,16.31,73216.3,1.75,1.59,1.63,0,*72
1505423114.16,64431,16.31,73222.8,1.75,1.47,1.59,0,*75
1505423115.41,64432,16.31,73222.5,1.77,1.43,1.51,0,*78
1505423116.66,64433,16.31,73224.8,1.77,1.51,1.51,0,*7A
1505423117.92,64434,16.31,73230.0,1.77,1.43,1.51,0,*7E
1505423119.14,64435,16.31,73224.5,1.77,1.41,1.43,0,*7E
1505423120.34,64436,16.31,73230.0,1.77,1.41,1.41,0,*7F
1505423121.55,64437,16.31,73222.0,1.75,1.41,1.37,0,*7D
1505423122.77,64438,16.31,73218.5,1.79,1.43,1.43,0,*7F
1505423123.95,64439,16.31,73224.8,1.79,1.41,1.41,0,*7E
1505423125.15,64440,16.31,73218.5,1.75,1.37,1.41,0,*7D
1505423126.38,64441,16.31,73218.3,1.75,1.51,1.63,0,*7C
1505423127.63,64442,16.31,73226.0,1.77,1.67,1.67,0,*7C
1505423128.89,64443,16.31,73226.5,1.77,1.51,1.51,0,*7D
1505423130.14,64444,16.31,73224.0,1.77,1.55,1.55,0,*7A
1505423131.4,64445,16.31,73226.3,1.77,1.63,1.67,0,*7F
1505423132.66,64446,16.31,73224.3,1.77,1.55,1.55,0,*78
1505423133.91,64447,16.31,73220.3,1.77,1.51,1.51,0,*79
1505423135.14,64448,16.31,73222.3,1.77,1.41,1.43,0,*74
1505423136.37,64449,16.31,73220.0,1.77,1.41,1.51,0,*76
1505423137.62,64450,16.31,73222.3,1.77,1.43,1.51,0,*7C
1505423138.87,64451,16.31,73222.0,1.77,1.43,1.55,0,*79
1505423140.13,64452,16.31,73220.3,1.77,1.55,1.51,0,*79
1505423141.39,64453,16.31,73214.5,1.77,1.51,1.55,0,*78
1505423142.64,64454,16.31,73218.5,1.77,1.51,1.43,0,*78
1505423143.9,64455,16.31,73220.8,1.77,1.55,1.51,0,*7E
1505423145.16,64456,16.31,73222.3,1.77,1.55,1.51,0,*7D
1505423146.4,64457,16.31,73228.0,1.81,1.47,1.59,0,*7E
1505423147.63,64458,16.31,73224.8,1.79,1.51,1.55,0,*7D
1505423148.86,64459,16.31,73226.5,1.79,1.55,1.55,0,*78
1505423150.09,64460,16.31,73232.8,1.79,1.55,1.51,0,*76
1505423151.32,64461,16.31,73224.8,1.79,1.51,1.55,0,*77
1505423152.56,64462,16.31,73220.8,1.79,1.55,1.55,0,*70
1505423153.78,64463,16.31,73224.8,1.79,1.51,1.51,0,*71
1505423155.01,64464,16.31,73222.3,1.79,1.51,1.55,0,*72
1505423156.24,64465,16.31,73222.3,1.79,1.51,1.55,0,*73
1505423157.47,64466,16.31,73222.8,1.79,1.51,1.51,0,*74
1505423158.69,64467,16.31,73224.5,1.79,1.51,1.55,0,*71
1505423159.92,64468,16.31,73226.3,1.79,1.51,1.55,0,*7E
1505423161.16,64469,16.31,73226.3,1.79,1.55,1.51,0,*7F
1505423162.39,64470,16.31,73222.8,1.79,1.55,1.51,0,*77
1505423163.64,64471,16.31,73224.8,1.81,1.55,1.59,0,*79
1505423164.88,64472,16.31,73224.0,1.81,1.59,1.59,0,*76
1505423166.13,64473,16.31,73226.8,1.81,1.71,1.71,0,*77
1505423167.33,64474,16.31,73232.8,1.81,1.79,1.79,0,*70
1505423168.53,64475,16.31,73232.0,1.81,1.79,1.79,0,*71
1505423169.78,64476,16.31,73228.3,1.81,1.71,1.67,0,*75
1505423171.03,64477,16.31,73228.0,1.81,1.67,1.67,0,*73
1505423172.27,64478,16.31,73224.8,1.81,1.67,1.71,0,*7B
1505423173.48,64479,16.31,73228.8,1.83,1.71,1.75,0,*7B
1505423174.7,64480,16.31,73232.5,1.83,1.71,1.63,0,*7A
1505423175.95,64481,16.31,73230.8,1.85,1.63,1.71,0,*7D
1505423177.17,64482,16.31,73234.3,1.83,1.59,1.63,0,*72
1505423178.42,64483,16.31,73234.3,1.85,1.59,1.63,0,*75
1505423179.64,64484,16.31,73234.5,1.83,1.63,1.63,0,*7D
1505423180.86,64485,16.31,73238.0,1.83,1.59,1.63,0,*75
1505423182.09,64486,16.31,73230.8,1.83,1.63,1.63,0,*7F
1505423183.31,64487,16.31,73228.5,1.83,1.63,1.71,0,*7D
1505423184.54,64488,16.31,73228.3,1.85,1.75,1.71,0,*73
1505423185.76,64489,16.31,73228.8,1.83,1.63,1.63,0,*70
1505423187.01,64490,16.31,73228.5,1.85,1.59,1.63,0,*77
1505423188.25,64491,16.31,73230.3,1.85,1.59,1.59,0,*7F
1505423189.5,64492,16.31,73232.0,1.85,1.51,1.51,0,*7C
1505423190.74,64493,16.31,73232.0,1.85,1.51,1.59,0,*75
1505423191.96,64494,16.31,73234.0,1.83,1.59,1.63,0,*75
1505423193.2,64495,16.31,73228.3,1.85,1.59,1.59,0,*7B
1505423194.45,64496,16.31,73230.0,1.85,1.59,1.63,0,*71
1505423195.69,64497,16.31,73232.5,1.85,1.59,1.59,0,*79
1505423196.93,64498,16.31,73234.8,1.85,1.59,1.59,0,*76
1505423198.18,64499,16.31,73234.8,1.85,1.47,1.47,0,*77
1505423199.43,64500,16.31,73234.0,1.89,1.51,1.51,0,*7A
1505423200.67,64501,16.31,73236.0,1.89,1.51,1.51,0,*7B
1505423201.92,64502,16.31,73230.8,1.89,1.51,1.51,0,*78
1505423203.17,64503,16.31,73234.5,1.89,1.55,1.51,0,*7D
1505423204.42,64504,16.31,73236.3,1.89,1.51,1.55,0,*7A
1505423205.67,64505,16.31,73236.3,1.89,1.55,1.51,0,*7B
1505423206.9,64506,16.31,73234.0,1.89,1.75,1.67,0,*7F
1505423208.14,64507,16.31,73232.0,1.89,1.63,1.63,0,*7D
1505423209.39,64508,16.31,73232.0,1.89,1.67,1.63,0,*76
1505423210.64,64509,16.31,73232.5,1.89,1.63,1.63,0,*73
1505423211.86,64510,16.31,73234.3,1.91,1.51,1.43,0,*71
1505423213.1,64511,16.31,73232.0,1.89,1.43,1.43,0,*7A
1505423214.33,64512,16.31,73238.5,1.91,1.43,1.43,0,*70
1505423215.5,64513,16.31,73234.5,1.91,1.41,1.41,0,*71
1505423216.72,64514,16.31,73234.8,1.89,1.43,1.41,0,*7D
1505423217.96,64515,16.31,73232.5,1.89,1.43,1.43,0,*7E
1505423219.18,64516,16.31,73234.3,1.91,1.43,1.43,0,*74
1505423220.4,64517,16.31,73232.8,1.89,1.41,1.43,0,*7E
1505423221.59,64518,16.31,73234.0,1.89,1.41,1.41,0,*73
1505423222.81,64519,16.31,73234.3,1.89,1.41,1.43,0,*70
1505423224.03,64520,16.31,73236.3,1.89,1.43,1.41,0,*7A
1505423225.27,64521,16.31,73234.3,1.89,1.43,1.51,0,*7A
1505423226.52,64522,16.31,73232.8,1.89,1.43,1.43,0,*7A
1505423227.71,64523,16.31,73232.3,1.89,1.41,1.41,0,*7B
1505423228.93,64524,16.31,73232.0,1.91,1.43,1.43,0,*75
1505423230.15,64525,16.31,73232.3,1.89,1.43,1.41,0,*7F
1505423231.37,64526,16.31,73230.3,1.89,1.41,1.43,0,*7C
1505423232.56,64527,16.31,73230.0,1.89,1.41,1.41,0,*7F
1505423233.79,64528,16.31,73232.3,1.89,1.33,1.41,0,*75
1505423235.01,64529,16.25,73230.0,1.91,1.51,1.43,0,*7B
1505423236.26,64530,16.31,73234.3,1.89,1.51,1.51,0,*79
1505423237.5,64531,16.31,73232.5,1.89,1.51,1.51,0,*78
1505423238.69,64532,16.31,73230.8,1.91,1.79,1.75,0,*7E
1505423239.87,64533,16.31,73230.5,1.91,1.79,1.79,0,*73
1505423241.07,64534,16.31,73230.5,1.89,1.79,1.79,0,*7D
1505423242.3,64535,16.31,73232.0,1.91,1.63,1.67,0,*71
1505423243.53,64536,16.31,73228.3,1.91,1.51,1.51,0,*76
1505423244.78,64537,16.31,73230.8,1.93,1.55,1.47,0,*76
1505423246.0,64538,16.31,73232.3,1.91,1.51,1.43,0,*7B
1505423247.18,64539,16.31,73234.3,1.91,1.41,1.41,0,*79
1505423248.4,64540,16.25,73230.8,1.91,1.43,1.51,0,*74
1505423249.63,64541,16.31,73232.0,1.91,1.43,1.51,0,*75
1505423250.85,64542,16.31,73232.0,1.91,1.51,1.55,0,*71
1505423252.08,64543,16.31,73228.5,1.91,1.43,1.51,0,*77
1505423253.3,64544,16.31,73228.3,1.91,1.43,1.43,0,*73
1505423254.5,64545,16.31,73234.3,1.91,1.41,1.51,0,*73
1505423255.76,64546,16.25,73232.5,1.93,1.55,1.47,0,*70
1505423257.0,64547,16.31,73236.0,1.93,1.43,1.43,0,*72
1505423258.27,64548,16.31,73238.8,1.93,1.33,1.33,0,*7D
1505423259.52,64549,16.31,73236.3,1.93,1.25,1.33,0,*7B
1505423260.76,64550,16.31,73238.8,1.91,1.33,1.29,0,*7D
1505423262.02,64551,16.31,73240.0,1.89,1.33,1.33,0,*7E
1505423263.22,64552,16.31,73246.0,1.91,1.43,1.41,0,*76
1505423264.47,64553,16.31,73240.0,1.93,1.43,1.37,0,*74
1505423265.72,64554,16.31,73242.0,1.93,1.43,1.37,0,*73
1505423266.97,64555,16.31,73236.5,1.93,1.43,1.43,0,*71
1505423268.21,64556,16.31,73240.0,1.91,1.33,1.29,0,*7B
1505423269.44,64557,16.31,73240.0,1.91,1.17,1.29,0,*7C
1505423270.68,64558,16.31,73242.0,1.91,1.21,1.21,0,*7E
1505423271.92,64559,16.31,73242.3,1.91,1.33,1.29,0,*74
1505423273.13,64560,16.31,73238.3,1.91,1.41,1.33,0,*70
1505423274.32,64561,16.31,73236.3,1.91,1.43,1.41,0,*76
1505423275.58,64562,16.31,73236.0,1.93,1.55,1.55,0,*75
1505423276.84,64563,16.31,73236.0,1.93,1.55,1.55,0,*74
1505423278.08,64564,16.31,73226.5,1.89,1.51,1.55,0,*7C
1505423279.31,64565,16.31,73234.0,1.91,1.63,1.63,0,*70
1505423280.54,64566,16.31,73244.0,1.91,1.63,1.67,0,*77
1505423281.8,64567,16.25,73242.0,1.93,1.55,1.55,0,*70
1505423283.04,64568,16.31,73236.3,1.93,1.43,1.43,0,*7F
1505423284.29,64569,16.31,73230.5,1.93,1.47,1.47,0,*7E
1505423285.54,64570,16.31,73228.0,1.93,1.47,1.47,0,*76
1505423286.76,64571,16.31,73228.0,1.95,1.47,1.47,0,*71
1505423287.98,64572,16.25,73222.3,1.95,1.43,1.43,0,*72
1505423289.22,64573,16.31,73220.8,1.93,1.47,1.43,0,*71
1505423290.47,64574,16.31,73222.3,1.93,1.43,1.43,0,*72
1505423291.72,64575,16.31,73220.0,1.93,1.43,1.37,0,*70
1505423292.98,64576,16.31,73222.8,1.93,1.25,1.37,0,*73
1505423294.24,64577,16.31,73224.3,1.93,1.21,1.21,0,*71
1505423295.51,64578,16.31,73212.5,1.93,1.21,1.25,0,*7A
1505423296.77,64579,16.31,73218.0,1.93,1.21,1.21,0,*7F
1505423298.01,64580,16.31,73218.5,1.91,1.21,1.21,0,*7B
1505423299.25,64581,16.31,73218.5,1.91,1.33,1.29,0,*71
1505423300.49,64582,16.31,73222.3,1.91,1.33,1.29,0,*72
1505423301.75,64583,16.31,73220.8,1.93,1.33,1.33,0,*7A
1505423303.02,64584,16.31,73222.8,1.93,1.33,1.33,0,*7D
1505423304.28,64585,16.31,73220.3,1.93,1.21,1.21,0,*7C
1505423305.54,64586,16.31,73220.8,1.93,1.21,1.17,0,*7A
1505423306.75,64587,16.31,73218.0,1.91,1.05,1.13,0,*7B
1505423307.93,64588,16.31,73222.5,1.91,1.01,1.05,0,*77
1505423309.11,64589,16.25,73220.8,1.91,1.05,1.05,0,*72
1505423310.32,64590,16.31,73220.0,1.91,1.05,1.13,0,*7D
1505423311.53,64591,16.31,73214.8,1.89,1.01,0.95,0,*4E
1505423312.73,64592,16.31,73216.3,1.91,0.95,1.01,0,*44
1505423313.91,64593,16.31,73222.3,1.91,1.01,1.01,0,*79
1505423315.11,64594,16.31,73220.3,1.89,1.05,1.05,0,*77
1505423316.31,64595,16.31,73216.8,1.91,1.05,0.95,0,*47
1505423317.52,64596,16.31,73216.8,1.91,0.95,0.95,0,*7C
1505423318.73,64597,16.31,73218.8,1.89,1.05,1.05,0,*74
1505423319.93,64598,16.25,73216.5,1.89,1.05,1.05,0,*7B
1505423321.13,64599,16.31,73212.3,1.89,1.05,1.05,0,*7A
1505423322.36,64600,16.31,73216.0,1.89,1.05,1.13,0,*7E
1505423323.61,64601,16.31,73218.8,1.89,1.13,1.13,0,*78
1505423324.82,64602,16.25,73218.3,1.89,1.05,1.05,0,*7B
1505423326.02,64603,16.31,73220.8,1.89,1.01,1.01,0,*7A
1505423327.22,64604,16.31,73222.8,1.89,1.05,1.05,0,*7D
1505423328.44,64605,16.31,73218.8,1.89,1.05,1.13,0,*7B
1505423329.68,64606,16.31,73212.3,1.83,1.09,1.13,0,*7E
1505423330.93,64607,16.25,73220.0,1.85,1.13,1.13,0,*72
1505423332.17,64608,16.25,73224.8,1.83,1.17,1.13,0,*7F
1505423333.42,64609,16.31,73216.8,1.85,1.25,1.17,0,*7D